Regional Weather Roundup
Issued by NWS Wakefield, VA

Home | Current Version | Previous Version | Graphics & Text | Print | Product List | Glossary On
Versions: 1 2 3 4 5 6 7 8 9 10 11 12 13 14 15 16 17 18 19 20 21 22 23 24 25 26 27 28 29 30 31 32 33 34 35 36 37 38 39 40 41 42 43 44 45 46 47 48 49 50
000
ASUS41 KAKQ 271615
RWRAKQ

REGIONAL WEATHER ROUNDUP
NATIONAL WEATHER SERVICE WAKEFIELD VA
1200 PM EDT MON MAR 27 2017

Note: "fair" indicates few or no clouds below 12,000 feet with no
significant weather and/or obstructions to visibility. * = Denotes
station may not report precipitation (e.g., rain,snow,etc.),
thunder or fog.

VAZ042-051-052>054-056-271700-
NORTHERN VIRGINIA

CITY           SKY/WX    TMP DP  RH WIND       PRES   REMARKS
WASH NATIONAL  CLOUDY    56  52  86 S7        30.06F
DULLES         CLOUDY    56  51  84 SW7       30.06S HAZE
FORT BELVOIR   CLOUDY    57  52  84 VRB6      30.06F
QUANTICO       CLOUDY    52  52 100 S3        30.07F
FREDERICKSBRG* PTSUNNY   65  60  83 SW12G17   30.05F
STAFFORD*      CLOUDY    62  59  90 SW7       30.10F
WARRENTON      CLOUDY    64  55  73 SW9       30.04F
CULPEPER*      PTSUNNY   61  61  99 SW10      30.06S
MANASSAS*        N/A     59  54  83 SW7       30.06F
LEESBURG*      CLOUDY    54  54 100 CALM      30.06F FOG
WINCHESTER     CLOUDY    59  54  82 N7        30.03S
FRONT ROYAL*   MOSUNNY   72  57  60 W5        30.01S
LURAY*         SUNNY     70  59  68 S12G17    30.02S
$$

VAZ048-049-060>072-079>083-271700-
CENTRAL AND SOUTH CENTRAL VIRGINIA

CITY           SKY/WX    TMP DP  RH WIND       PRES   REMARKS
RICHMOND       CLOUDY    69  58  67 SW17      30.08F
CHESTERFIELD*  PTSUNNY   72  46  40 S13G18    30.10F
PETERSBURG*    PTSUNNY   70  56  59 SW13G18   30.10F
HANOVER        PTSUNNY   70  56  61 SW14G21   30.09F
TAPPAHANNOCK*  MOSUNNY   69  53  56 SE7G20    30.09S
QUINTON*       CLOUDY    66  58  75 S13G21    30.09F
CHARLOTTSVILLE MOSUNNY   67  58  72 SW10      30.06S
GORDONSVILLE*  CLOUDY    61  58  88 SW16      30.05F
ORANGE*        CLOUDY    61  55  82 SW15G21   30.07F
LOUISA*        PTSUNNY   68  61  77 SW9G18    30.06S
BUMPASS*       FAIR      67  58  72 SW12G18   30.07S
FARMVILLE*     PTSUNNY   72  61  69 SW10G18   30.06F
CREWE*         CLOUDY    68  61  78 SW7       30.09S
FORT PICKETT*  CLOUDY    68  55  64 SW13G21   30.10S
CHASE CITY*    CLOUDY    71  58  64 SW7       30.09F
CLARKSVILLE*   PTSUNNY   70  61  73 S12G17    30.10F
SOUTH HILL*    CLOUDY    71  60  68 SW15      30.16F
LAWRENCEVILLE* PTSUNNY   69  56  64 MISG      30.11F
EMPORIA*       CLOUDY    66  55  68 S10       30.13F
$$

VAZ088>098-271700-
SOUTHEAST VIRGINIA

CITY           SKY/WX    TMP DP  RH WIND       PRES   REMARKS
NORFOLK        MOSUNNY   75  56  51 SW18G24   30.11F
VIRGINIA BEACH MOSUNNY   72  54  53 SW16      30.11F
NORFOLK NAVAL  CLOUDY    73  55  53 SW10G21   30.12F
WEST POINT*    CLOUDY    68  56  64 SW7       30.11F
SALUDA*        CLOUDY    70  58  67 SW10G18   30.09F
NEWPORT NEWS   CLOUDY    73  57  57 SW16G25   30.11F
LANGLEY AFB    PTSUNNY   72  58  60 SW17      30.10F
FORT EUSTIS    CLOUDY    71  58  63 S10       30.08F
WILLIAMSBURG*  CLOUDY    72  57  60 SW7G20    30.11F
HR EXEC AP*    CLOUDY    72  55  56 W10G16    30.10F
FRANKLIN*      CLOUDY    71  56  59 SW12G20   30.12F
US460-WAKEFLD  CLOUDY    71  57  61 SW13G21   30.10F
$$

VAZ020-022-025-037-045-271700-
WEST CENTRAL AND SOUTHWEST VIRGINIA

CITY           SKY/WX    TMP DP  RH WIND       PRES   REMARKS
STAUNTON*      SUNNY     67  57  68 SW13      30.07F
WAYNESBORO*    MOSUNNY   67  58  73 SW12G20   30.07S
HOT SPRINGS VA CLOUDY    59  52  77 W12G18    30.12S
LYNCHBURG      CLOUDY    65  58  78 SW7       30.09F
DANVILLE       CLOUDY    67  59  75 SW9       30.10S
SOUTH BOSTON*  CLOUDY    70  57  63 S10G16    30.09F
MARTINSVILLE   CLOUDY    64  57  78 SW5       30.13F
ROANOKE        MOSUNNY   69  57  65 SE7       30.09F
BLACKSBURG     CLOUDY    68  56  64 W5        30.12F
DUBLIN*        PTSUNNY   70  54  56 SW12G18   30.10F
MARION*        CLOUDY    69  54  60 W14       30.12F
HILLSVILLE*    CLOUDY    67  54  64 SW6       30.10F
RICHLANDS*     PTSUNNY   67  54  63 SW10G18   30.10S
WISE*          MOSUNNY   64  52  63 SW17      30.11S
ABINGDON*      PTSUNNY   70  55  58 W10G20    30.09F
$$

MDZ021>025-VAZ099-100-271700-
SOUTHERN MARYLAND AND THE DELMARVA PENINSULA

CITY           SKY/WX    TMP DP  RH WIND       PRES   REMARKS
PATUXENT RIVER CLOUDY    68  58  70 S17G24    30.05F
BAY BRIDGE APT CLOUDY    52  50  93 W3        30.07F FOG
LEONARDTOWN    MOSUNNY   68  55  64 SW12      30.07F
DOVER          CLOUDY    63  63 100 SW9       30.05F
GEORGETOWN     CLOUDY    69  56  62 SW18G24   30.07F
EASTON         PTSUNNY   64  55  72 SW10      30.10F
CAMBRIDGE      MOSUNNY   66  57  72 S9G17     30.06F
SALISBURY      CLOUDY    70  57  63 SW17      30.08F
OCEAN CITY     MOSUNNY   68  54  60 SW15G23   30.09F
WALLOPS ISLAND PTSUNNY   65  55  70 S15       30.11F
ACCOMACK*      CLOUDY    71  57  60 SW14G25   30.10F
$$

NCZ012>017-030>032-271700-
NORTH CENTRAL AND EASTERN NORTH CAROLINA

CITY           SKY/WX    TMP DP  RH WIND       PRES   REMARKS
ROANOKE RAPIDS FAIR      66  57  72 SW12G17   30.13F
RALEIGH        PTSUNNY   71  60  68 SW15      30.13F
ELIZABETH CITY MOSUNNY   74  54  49 SW10G21   30.14F
AHOSKIE*         N/A     70  58  66 CALM      30.14S
EDENTON*       PTSUNNY   74  56  54 SW10      30.15F
CURRITUCK*     SUNNY     74  52  46 SW10G18   30.14F
KILL DEVIL HLS NOT AVBL
MANTEO         CLOUDY    65  53  65 S7        30.16F
CAPE HATTERAS  MOSUNNY   75  53  46 SW7       30.17S
TARBORO*       NOT AVBL
GOLDSBORO      CLOUDY    71  58  64 W10       30.14F
WASHINGTON     MOSUNNY   72  55  55 W7        30.15F
GREENVILLE     PTSUNNY   75  55  50 SW6       30.16S
NEW BERN       PTSUNNY   74  54  49 W8        30.16F
WILMINGTON     MOSUNNY   74  54  49 S6        30.16F
$$

VAZ048-271700-
ELSEWHERE

CITY           SKY/WX    TMP DP  RH WIND       PRES   REMARKS
HARRISBURG PA  CLOUDY    46  45  96 S3        30.05F FOG
BALTIMORE      CLOUDY    54  52  93 SW6       30.06F FOG
ANNAPOLIS      CLOUDY    49  48  97 SE8       30.07F
ANDREWS AFB    CLOUDY    59  59 100 SW12      30.04F
PHILADELPHIA   CLOUDY    49  47  93 SE3       30.07F FOG
HENDERSON NC   MOSUNNY   67  57  71 SW15      30.11F
GREENSBORO     CLOUDY    66  60  81 SW7       30.11S
ROCKY MOUNT    LGT RAIN  66  59  78 S7        30.15F
$$

VAZ100-271700-
MARINE

STATION/POSITION TIME  TEMP    WIND        PRES    WAVE   SWELL
                       AIR SEA DIR/SP/G            HT/PER HT/PER
                 (UTC) (F)     (DEG/KT/KT) (MB)    (FT/S) (FT/S)
CAPE MAY NJ      1548   56 44  200/  8/ 10 1017.9F
LEWES DE         1548   69 44  260/ 14/ 22 1018.0F
OCEAN-CITY-INLET 1548   54 45  210/ 14/ 17 1019.5F
WACHAPREAGUE VA  1548   62 54  210/ 11/ 13 1019.3F
THOMAS POINT MD  1600   47 45  140/  4/  4   N/A
GOOSES REEF MD   1600   49 47  100/  4/  4 1018.8    0
COVE POINT MD    1548   61     240/ 12/ 17 1018.5F
SOLOMONS ISLAND  1548          220/ 14/ 19   N/A
BISHOPS HEAD MD  1548   56 53  170/ 12/ 14 1018.8F
PINEY POINT MD   1548          240/  9/ 11   N/A
POTOMAC MD       1600   55 47  200/  4/  6 1017.5    1/ 2
CAMBRIDGE MD     1548   65 46  200/  8/ 13 1017.3F
LEWISETTA VA     1548   65 51  220/  9/ 12 1018.0F
RAPPAHANNOCK LGT 1548          180/ 17/ 17 1019.8F
STINGRAY PT      1600   55 48  200/  6/  8 1019.8
YORK RVR RNG VA  1548   63     220/ 13/ 16 1018.6F
YORKTOWN VA      1548   68 50  230/ 13/ 19 1018.8F
JAMESTOWN VA     1600   67 55  220/ 10/ 17   N/A     0
DOMINION TERM VA 1548   61     230/ 10/ 12 1019.8F
KIPTOPEKE VA     1548      49                N/A
CHES BAY BRIDGE  1548   67 48  230/ 16/ 17 1019.5F
CAPE HENRY VA    1548   71     230/  8/ 15   N/A
WILLOUBY STN VA  1548   65     240/ 13/ 14 1020.5F
S CRANEY ISL VA  1548   70     230/ 11/ 15 1019.6F
CAPE HENRY BUOY  1542      50                N/A     3/ 8   2/18
CAPE CHARLES BUO 1551      49                N/A     2/ 7
OFFSHORE WE BUOY 1551      51                N/A     3/ 8   2/11
64NM E OF VA BCH 1550   55 50  200/  6/  8 1021.0F   4/ 9   3/ 9
DUCK PIER NC     1548   69 49  200/ 11/ 13 1020.4F
44100 DUCK FRF   1505      51                N/A     4/ 7   2/18
44056 DUCK FRF   1530      53                N/A     3/ 8   2/18
OREGON INLET NC  1548          170/  8/ 10   N/A
HATTERAS NC      1548   73 60  190/  3/  6 1021.3F
DIAMOND SHLS NC  1550   71 76  180/  4/  6 1021.7F   3/ 9   3/ 9
CAPE LOOKOUT NC  1600   72     300/  4/  6 1021.4F
$$



USA.gov is the U.S. government's official web portal to all federal, state and local government web resources and services.